GEFSCGP_con_probscp_360.txt.gz
Probability
0 0 0 0 0 0 0 0 0 0 0 1 0 1 5 9 10 12 14 14 12 10 10 13 16 17 16 14 11 10 9 9 9 8 6 5 4 3 3 2 1 0 0 0
0 0 0 0 0 0 0 0 0 0 0 1 0 1 4 9 10 12 13 13 12 11 12 16 19 20 18 14 12 11 11 10 9 8 6 4 4 4 3 3 2 1 0 0
0 0 0 0 0 0 0 0 0 0 0 0 0 1 4 8 10 10 12 11 11 12 14 18 22 23 20 15 13 12 12 10 9 8 7 5 5 5 4 4 4 4 3 2
0 0 0 0 0 0 0 0 0 0 0 0 0 1 4 6 8 9 10 10 10 11 15 19 23 24 21 17 14 14 14 13 11 9 7 7 7 7 5 3 4 6 5 4
0 0 0 0 0 0 0 0 0 0 0 0 0 1 4 6 6 6 8 11 12 12 14 18 22 23 22 19 17 17 18 18 15 12 10 9 9 8 6 5 5 6 5 4
0 0 0 0 0 0 0 0 0 0 0 0 0 1 3 5 5 5 8 13 15 13 13 17 20 20 21 21 20 20 22 22 20 16 13 12 11 9 9 9 8 6 5 4
0 0 0 0 0 0 0 0 0 0 0 0 0 1 3 4 4 5 8 13 16 15 14 17 17 17 19 21 21 22 22 24 24 21 17 15 13 12 12 11 9 7 6 6
0 0 0 0 0 0 0 0 0 0 0 0 0 1 3 4 5 5 7 11 15 17 18 19 18 17 18 19 20 21 22 24 27 25 23 21 19 17 15 12 9 6 6 6
0 0 0 0 0 0 0 0 0 0 0 0 0 1 4 5 5 7 8 10 12 17 22 23 21 19 17 16 17 20 22 25 28 28 27 27 26 22 18 14 10 8 7 7
0 0 0 0 0 0 0 0 0 0 0 0 0 1 3 6 7 9 10 10 12 17 22 23 20 16 14 13 15 20 21 23 26 27 28 27 25 22 19 17 15 11 9 9
0 0 0 0 0 0 0 0 0 0 0 0 0 0 2 6 9 11 12 12 14 17 20 18 15 12 11 11 14 17 19 20 22 23 24 24 21 18 18 19 17 14 11 11
0 0 0 0 0 0 0 0 0 0 0 0 0 0 2 6 9 10 12 13 14 17 18 16 15 14 12 12 14 17 19 21 21 21 21 21 19 17 18 18 17 15 12 11
0 0 0 0 0 0 0 0 0 0 0 0 0 1 3 6 7 7 9 12 14 17 17 18 19 18 16 15 16 19 20 21 21 20 19 18 17 16 16 14 13 12 12 11
0 0 0 0 0 0 0 0 0 1 0 0 0 2 5 7 6 5 6 10 14 16 18 21 21 19 16 16 17 18 18 17 16 15 15 15 14 12 10 8 7 8 10 10
0 0 0 0 0 0 0 0 0 0 0 0 1 3 5 6 6 7 9 13 17 18 20 24 22 16 14 15 16 15 13 11 11 10 10 10 10 8 5 4 4 6 7 6
0 0 0 0 0 0 0 0 0 0 0 1 3 5 6 7 8 11 14 18 22 22 21 23 22 17 16 17 17 14 11 10 9 7 6 7 7 6 5 4 5 6 5 4
0 0 0 0 0 0 0 0 0 1 3 3 4 7 10 13 13 14 17 22 25 25 22 21 22 19 17 18 18 15 13 11 10 8 7 7 7 6 5 5 5 5 5 5
0 0 0 0 0 0 0 0 1 4 6 6 8 11 15 17 16 16 19 24 26 25 22 22 22 21 18 18 18 16 14 13 12 11 10 9 8 7 5 5 4 4 4 5
0 0 0 0 0 0 0 1 3 6 8 9 11 15 17 16 16 18 21 24 25 24 22 23 25 25 23 21 20 18 17 15 13 12 12 12 11 8 6 4 4 4 4 5
0 0 0 0 0 0 0 1 2 5 7 9 12 14 15 13 12 14 18 21 23 21 21 24 27 28 25 22 21 22 20 16 13 11 11 13 13 12 9 8 8 7 6 6
0 0 0 0 0 0 0 0 1 2 4 9 12 13 12 10 7 8 12 18 20 20 20 22 24 25 22 20 22 22 19 14 11 9 10 12 14 14 13 13 11 8 7 6
0 0 0 0 0 0 0 1 1 1 2 7 11 12 10 8 7 8 11 16 18 19 19 20 21 21 18 18 20 19 15 11 9 8 10 11 12 13 14 13 11 8 7 6
0 0 1 1 0 0 0 1 2 2 3 6 9 10 10 10 12 13 15 16 17 18 19 20 21 19 16 16 17 15 12 9 8 8 10 11 10 10 11 12 11 9 8 7
1 1 2 2 2 2 2 2 3 4 5 8 10 11 11 13 15 16 17 17 17 17 19 19 19 17 15 14 14 12 11 9 8 8 9 10 9 8 9 10 10 8 7 7
2 2 3 3 3 3 4 4 4 6 9 12 13 12 12 14 16 16 16 17 17 18 19 18 17 16 15 14 12 10 9 9 8 6 7 8 7 7 7 8 7 5 4 5
3 2 2 3 2 2 3 4 5 7 11 14 13 12 13 14 15 15 15 16 18 19 19 16 16 17 16 14 12 9 8 9 7 5 5 6 7 6 6 6 4 2 1 2

GEFSCGP_con_probscp_366.txt.gz
Probability
0 0 0 0 0 0 0 0 0 0 0 0 0 0 1 2 3 3 3 2 1 0 0 0 1 2 2 2 3 5 6 5 3 1 1 1 1 0 0 1 1 0 0 0
0 0 0 0 0 0 0 0 0 0 0 0 0 0 1 2 3 3 3 2 1 0 0 1 3 4 4 4 5 6 5 4 3 2 1 0 0 0 0 1 2 1 1 0
0 0 0 0 0 0 0 0 0 0 0 0 0 0 0 1 3 3 3 2 1 0 1 3 5 6 6 6 7 6 5 4 4 4 2 2 1 1 1 2 3 3 3 3
0 0 0 0 0 0 0 0 0 0 0 0 0 0 0 1 2 3 3 2 0 0 1 3 5 7 6 6 6 6 5 5 4 5 5 5 4 4 3 3 4 4 6 7
0 0 0 0 0 0 0 0 0 0 0 0 0 0 0 1 2 3 3 2 1 1 1 3 5 7 7 4 3 5 5 5 5 6 6 7 7 6 6 6 5 5 6 7
0 0 0 0 0 0 0 0 0 0 0 0 0 0 0 0 1 1 3 3 2 3 3 3 4 6 6 4 3 3 4 5 4 5 6 7 8 8 7 7 7 7 7 6
0 0 0 0 0 0 0 0 0 0 0 0 0 0 0 0 0 1 2 3 3 4 4 4 5 6 7 5 3 3 4 4 5 5 7 8 9 9 8 8 7 7 7 6
0 0 0 0 0 0 0 0 0 0 0 0 0 0 0 0 1 2 3 3 3 3 3 3 5 7 7 5 3 2 3 3 4 6 8 10 10 10 9 9 8 7 6 6
0 0 0 0 0 0 0 0 0 0 0 0 0 0 0 2 3 4 4 4 3 2 1 2 4 5 5 2 1 2 3 3 4 5 8 11 11 10 10 10 9 7 6 6
0 0 0 0 0 0 0 0 0 0 0 0 0 0 0 2 4 5 4 4 3 1 0 1 1 2 1 0 1 3 5 5 5 5 7 10 11 11 11 11 9 8 7 7
0 0 0 0 0 0 0 0 0 0 0 0 0 0 0 1 3 4 3 2 1 0 1 2 1 0 0 0 1 3 5 7 7 7 8 10 12 12 12 13 12 9 8 8
0 0 0 0 0 0 0 0 0 0 0 0 0 0 0 1 2 3 3 2 0 0 1 3 3 1 1 1 1 3 6 9 9 9 9 10 12 13 14 14 13 10 8 8
0 0 0 0 0 0 0 0 0 0 0 0 0 0 0 0 2 3 2 1 0 0 1 3 3 3 2 2 3 5 8 9 9 9 10 11 11 12 13 13 13 10 8 8
0 0 0 0 0 0 0 0 0 0 0 0 0 0 0 1 2 2 1 1 2 3 3 3 3 4 4 4 4 7 9 10 8 8 10 11 10 10 11 11 11 9 8 8
0 0 0 0 0 0 0 0 0 0 0 1 1 1 0 1 2 3 2 3 6 7 7 5 4 4 5 5 5 7 10 10 9 10 10 10 9 8 9 9 9 8 7 7
0 0 0 0 0 0 0 0 1 1 1 2 2 2 0 0 2 4 4 5 7 9 8 5 4 4 5 5 6 8 10 10 10 12 12 10 8 7 6 6 6 6 5 5
0 0 0 0 0 0 0 0 1 2 3 2 2 2 2 2 3 4 6 6 7 7 7 5 4 4 4 4 6 9 10 9 10 13 12 10 8 7 5 4 4 4 3 3
0 0 0 0 0 0 0 0 1 2 3 3 3 5 6 7 7 6 6 6 6 5 6 6 6 5 4 5 8 10 10 10 11 11 11 11 9 7 5 5 4 3 3 2
0 0 0 0 0 0 0 0 0 1 2 3 4 7 10 13 12 8 6 6 6 5 5 7 7 6 5 5 8 10 11 10 10 11 11 11 9 7 6 6 5 4 3 2
0 0 0 0 0 0 0 0 0 1 1 2 4 8 11 13 12 7 5 5 5 5 6 6 7 7 6 5 7 11 12 11 10 10 11 10 8 7 7 7 6 5 4 3
0 0 0 0 0 0 0 0 0 1 1 2 5 8 8 8 7 5 4 4 4 5 6 6 7 9 8 7 7 10 11 11 11 11 11 9 7 6 6 8 8 7 6 6
1 1 0 0 0 0 0 0 0 0 1 2 4 5 5 5 5 4 3 3 3 4 6 7 7 9 10 9 8 8 10 11 11 12 11 8 6 5 5 7 8 7 7 7
0 0 0 1 1 0 1 1 1 1 2 2 3 4 4 5 5 3 1 2 3 4 5 5 6 7 7 6 6 7 9 10 10 10 9 7 6 5 5 5 5 6 6 6
0 0 0 1 1 0 1 1 1 2 3 3 3 4 5 6 5 2 2 2 3 4 5 5 5 5 4 3 4 6 7 8 9 8 7 7 8 8 7 5 4 4 5 4
0 0 0 1 1 0 0 0 1 2 3 2 2 3 5 5 3 3 4 4 4 5 6 6 6 5 3 1 1 3 4 7 9 9 7 7 8 8 9 7 4 3 4 3
0 0 1 1 1 0 0 0 1 2 2 1 1 2 4 4 3 4 5 5 5 6 7 7 6 5 3 1 0 1 3 5 9 10 8 7 7 8 9 8 4 2 2 2

GEFSCGP_con_probscp_372.txt.gz
Probability
0 0 0 0 0 0 0 0 0 0 0 0 0 0 0 0 0 0 1 2 4 5 5 5 4 3 6 11 15 15 14 13 11 9 6 3 1 0 0 1 4 4 3 4
0 0 0 0 0 0 0 0 0 0 0 0 0 0 0 0 0 0 0 2 5 7 6 5 3 2 5 11 14 14 14 14 13 11 9 6 3 2 1 3 6 7 7 9
0 0 0 0 0 0 0 0 0 0 0 0 0 0 0 1 1 1 1 2 5 7 6 4 2 1 3 8 10 11 12 13 13 13 12 10 8 7 6 7 9 11 12 13
0 0 0 0 0 0 0 0 0 0 0 0 0 0 0 1 2 2 3 3 5 5 4 3 2 2 2 3 6 9 12 13 13 13 13 13 14 13 11 11 12 13 14 14
0 0 0 0 0 0 0 0 0 0 0 0 0 0 0 1 2 3 4 5 5 5 4 3 4 4 3 3 5 8 12 15 14 13 14 16 17 17 16 16 15 14 13 13
0 0 0 0 0 0 0 0 0 0 0 0 0 0 0 1 1 2 4 5 6 6 4 4 6 8 8 7 7 8 12 16 16 15 14 16 18 18 17 17 16 14 12 11
0 0 0 0 0 0 0 0 0 0 0 0 0 0 0 0 1 1 2 4 6 6 4 4 7 10 11 11 9 9 12 16 17 14 13 15 17 16 15 15 15 14 11 10
0 0 0 0 0 0 0 0 0 0 0 0 0 0 0 0 1 2 2 3 6 7 6 5 5 8 10 11 10 9 12 16 16 14 13 16 17 15 14 15 16 16 14 13
0 0 0 0 0 0 0 0 0 0 0 0 0 0 0 0 2 3 3 4 8 9 8 6 5 7 10 11 11 11 12 15 17 15 16 18 18 17 17 17 20 20 19 17
0 0 0 0 0 0 0 0 0 0 0 0 0 0 1 2 3 4 4 6 9 10 9 9 9 10 12 13 12 11 11 14 16 17 17 17 17 18 19 20 21 22 21 20
0 0 0 0 0 0 0 0 0 0 0 0 0 1 2 3 4 5 5 7 9 10 11 13 14 15 16 16 14 12 12 13 15 16 16 15 16 18 20 21 22 23 23 22
0 0 0 0 0 0 0 0 0 0 0 0 0 1 2 3 4 6 6 8 12 13 14 16 17 17 18 17 15 13 12 13 14 17 17 16 16 18 19 21 22 24 25 24
0 0 0 0 0 0 0 0 0 0 0 0 0 0 1 2 5 7 8 10 15 16 16 17 18 18 18 17 15 13 12 12 14 16 16 16 18 19 20 21 23 25 26 26
0 0 0 0 0 0 0 0 0 0 0 0 0 1 2 4 6 9 11 13 17 19 19 19 20 19 17 15 13 12 10 10 12 15 16 17 19 20 22 23 24 24 24 24
0 0 0 0 0 0 0 0 0 0 0 0 2 3 4 5 6 9 13 16 19 22 24 25 25 22 18 14 13 12 11 12 14 16 18 19 20 21 22 23 23 23 22 22
0 0 0 0 0 0 0 0 0 0 0 1 3 4 5 6 6 9 14 16 19 24 28 31 31 26 19 15 14 15 14 15 18 19 20 20 21 21 21 21 21 21 21 20
0 0 0 0 0 0 0 0 0 0 0 2 3 4 5 6 6 8 11 14 17 22 30 34 32 26 20 15 15 16 17 18 20 22 21 21 21 21 20 20 20 20 20 19
0 0 0 0 0 0 0 0 0 0 1 2 3 4 6 7 7 7 10 14 16 21 30 34 30 23 17 14 14 16 18 18 19 21 22 21 20 21 21 21 21 21 20 19
1 1 0 0 0 0 1 2 1 1 2 4 5 7 8 9 9 11 15 18 19 24 30 31 26 20 15 14 16 18 19 18 19 23 25 23 22 22 22 23 22 20 20 19
3 3 1 1 1 1 2 3 2 2 5 8 9 10 12 12 13 17 22 23 24 28 29 26 22 18 16 17 20 21 20 19 21 25 28 27 26 23 21 21 21 20 19 17
4 4 3 2 2 2 3 4 4 6 10 13 14 15 15 17 18 21 24 24 25 27 25 21 19 18 19 19 21 22 21 19 19 21 24 25 25 23 21 21 22 21 17 14
5 5 4 4 4 5 5 6 8 13 15 17 18 18 19 20 21 21 22 22 24 23 20 19 18 17 18 20 22 24 23 19 16 16 16 17 18 19 19 20 21 19 16 13
9 8 7 7 9 10 9 10 12 15 18 18 18 19 20 20 19 19 17 17 18 18 17 17 17 16 16 19 23 26 26 21 17 14 12 11 12 14 16 17 17 16 13 11
11 11 11 11 13 13 12 12 12 14 16 15 14 16 18 18 17 16 13 11 12 13 14 15 15 15 16 18 22 25 25 22 18 15 12 9 9 11 13 15 14 12 10 9
8 10 11 11 13 14 12 11 11 12 13 12 11 12 13 13 15 15 12 9 9 10 12 13 13 14 16 18 20 21 21 19 18 16 11 8 8 10 12 13 12 10 8 7
6 9 9 9 11 13 12 10 10 10 11 11 11 12 10 10 13 14 12 10 9 11 13 13 12 13 17 18 18 19 18 17 17 15 11 9 9 10 11 12 11 8 7 7

GEFSCGP_con_probscp_378.txt.gz
Probability
0 0 0 0 0 0 0 0 0 0 0 0 1 3 5 6 5 6 8 10 11 14 14 13 11 14 17 19 22 27 28 29 29 28 28 25 21 17 16 19 25 28 27 25
0 0 0 0 0 0 0 0 0 0 0 0 0 2 6 7 7 7 9 10 12 16 18 15 14 16 19 20 24 27 28 29 30 29 27 25 22 19 17 21 28 31 29 27
0 0 0 0 0 0 0 0 0 0 0 0 1 3 6 9 9 9 10 11 14 18 20 20 20 22 23 23 25 28 29 30 31 29 27 24 24 22 20 22 27 29 28 26
0 0 0 0 0 0 0 0 0 0 0 0 1 2 6 9 10 10 11 13 15 19 22 24 27 28 26 25 26 28 30 32 31 30 27 24 23 23 22 22 23 25 24 24
0 0 0 0 0 0 0 0 0 0 0 0 0 1 3 6 8 9 11 14 17 19 22 26 30 31 27 24 24 27 31 33 33 31 29 26 23 23 24 23 22 23 24 24
0 0 0 0 0 0 0 0 1 0 0 0 0 1 2 4 5 8 11 14 17 19 21 25 30 31 26 22 23 27 34 38 37 34 31 29 28 27 27 24 21 21 23 24
0 0 0 0 0 0 0 0 0 0 0 0 1 2 2 2 3 6 10 12 15 18 22 25 29 30 26 23 24 30 38 42 41 38 34 32 32 31 27 23 19 18 21 23
0 0 0 0 0 0 0 0 0 0 0 0 2 3 3 3 4 6 9 12 15 19 23 25 28 29 28 27 27 33 41 44 43 40 36 34 34 31 27 23 20 19 20 20
0 0 0 0 0 0 0 0 0 0 0 0 1 3 5 6 6 6 8 12 16 20 24 27 29 31 31 29 28 33 40 43 40 37 35 34 34 32 28 26 24 22 21 20
0 0 0 0 0 0 0 0 0 0 0 0 0 2 5 7 8 9 10 13 17 21 26 30 32 32 31 29 27 30 37 39 37 34 33 33 34 33 30 28 27 25 24 24
0 0 0 0 0 0 0 0 1 1 0 0 0 2 4 5 8 12 16 19 21 24 28 31 33 31 29 28 26 27 30 33 33 32 32 32 33 32 29 28 28 28 28 28
0 0 0 0 0 0 0 0 1 1 1 1 1 2 3 4 7 14 23 27 28 30 33 35 35 33 32 32 29 26 26 27 27 28 30 30 31 29 27 27 28 29 29 29
0 0 0 0 0 0 0 0 0 1 1 1 2 3 3 5 8 15 24 30 31 35 40 41 40 38 38 40 37 29 25 24 23 25 27 28 27 26 26 27 30 30 29 29
0 0 0 0 0 0 0 0 0 0 1 1 3 5 6 8 11 16 24 29 31 36 43 46 45 42 43 46 43 34 27 25 24 25 26 26 26 26 28 30 32 32 30 29
0 0 0 0 0 0 0 0 0 0 0 1 3 6 9 11 14 18 25 28 30 34 43 47 46 44 45 47 46 39 31 28 28 29 29 29 29 30 33 35 35 34 31 29
0 0 0 0 0 0 0 0 0 0 0 1 4 8 13 15 16 20 24 27 28 31 39 45 46 46 47 48 48 44 36 32 34 35 33 32 32 34 37 38 37 35 32 30
1 1 1 0 0 0 0 0 0 0 1 4 7 13 18 19 18 20 24 26 27 31 38 43 44 46 47 47 47 44 38 34 37 38 36 35 34 37 38 39 38 36 34 33
1 2 2 0 0 0 0 0 0 2 6 10 14 18 20 19 19 22 25 27 30 35 40 42 42 45 47 47 44 41 37 35 37 38 38 38 39 39 40 40 40 40 40 39
1 2 1 0 0 0 0 0 1 4 11 17 20 22 22 19 20 24 28 30 34 38 40 41 40 42 45 45 43 40 36 34 35 37 39 42 42 41 41 42 44 45 44 42
2 1 1 1 0 1 1 0 2 8 16 22 23 24 23 23 24 26 28 31 34 35 36 36 37 39 40 41 41 38 33 30 31 34 38 40 41 40 39 43 47 47 43 39
2 2 2 2 2 3 2 2 7 17 25 25 23 22 23 26 29 28 28 30 31 30 29 30 33 35 36 37 38 36 32 28 28 30 33 35 35 33 33 39 46 46 41 37
2 2 3 3 5 8 7 8 15 25 28 24 20 20 22 26 29 28 27 28 28 26 22 23 26 30 33 36 37 36 32 29 28 28 28 29 29 26 26 35 42 43 39 34
1 2 4 5 9 14 15 15 18 22 22 19 18 18 21 25 28 28 28 28 27 22 18 18 20 24 28 33 36 35 33 31 29 27 26 26 25 24 26 31 35 36 34 30
2 3 6 9 11 15 18 18 18 17 16 17 17 18 21 25 29 30 29 28 25 20 17 17 19 22 25 29 31 31 32 32 29 26 25 25 24 24 27 28 28 28 28 28
3 3 6 10 13 15 16 16 16 17 16 16 18 20 22 26 29 30 30 29 24 19 17 18 20 23 25 26 26 28 30 29 27 24 23 23 24 24 25 25 23 20 20 21
2 3 6 11 15 15 15 14 13 14 14 15 18 21 24 27 28 27 28 29 25 21 19 20 21 23 25 25 25 28 29 27 25 24 21 21 22 23 23 22 18 14 12 12